Time,TemperatureF,DewpointF,PressureIn,WindDirection,WindDirectionDegrees,WindSpeedMPH,WindSpeedGustMPH,Humidity,HourlyPrecipIn,Conditions,Clouds,dailyrainin,SoftwareType,DateUTC
2013-07-23 00:00:00,50.4,49.8,29.97,NNW,338,4.7,4.7,98,0.00,,---,0.00,VWS V14.01,2013-07-23 07:00:00,
2013-07-23 00:04:00,50.4,49.8,29.97,NW,315,2.5,4.7,98,0.00,,---,0.00,VWS V14.01,2013-07-23 07:04:00,
2013-07-23 00:09:00,50.2,49.6,29.97,NNW,338,2.9,5.4,98,0.00,,---,0.00,VWS V14.01,2013-07-23 07:09:00,
2013-07-23 00:10:00,50.2,49.6,29.97,WNW,292,3.1,5.4,98,0.00,,---,0.00,VWS V14.01,2013-07-23 07:10:00,
2013-07-23 00:14:00,50.2,49.6,29.97,NNW,338,2.9,7.4,98,0.00,,---,0.00,VWS V14.01,2013-07-23 07:14:00,
2013-07-23 00:19:00,50.2,49.6,29.97,WNW,292,2.2,7.4,98,0.00,,---,0.00,VWS V14.01,2013-07-23 07:19:00,
2013-07-23 00:20:00,50.2,49.6,29.97,WNW,292,2.5,7.4,98,0.00,,---,0.00,VWS V14.01,2013-07-23 07:20:00,
2013-07-23 00:24:00,50.2,49.6,29.97,NNE,22,2.9,5.8,98,0.00,,---,0.00,VWS V14.01,2013-07-23 07:24:00,
2013-07-23 00:29:00,50.0,49.5,29.97,NW,315,3.1,5.8,98,0.00,,---,0.00,VWS V14.01,2013-07-23 07:29:00,
2013-07-23 00:30:00,50.0,49.5,29.97,NNW,338,2.5,5.8,98,0.00,,---,0.00,VWS V14.01,2013-07-23 07:30:00,
2013-07-23 00:34:00,50.0,49.5,29.97,WNW,292,5.4,5.4,98,0.00,,---,0.00,VWS V14.01,2013-07-23 07:34:00,
2013-07-23 00:39:00,49.8,49.3,29.97,WNW,292,6.0,6.0,98,0.00,,---,0.00,VWS V14.01,2013-07-23 07:39:00,
2013-07-23 00:40:00,49.8,49.3,29.97,WNW,292,3.6,6.0,98,0.00,,---,0.00,VWS V14.01,2013-07-23 07:40:00,
2013-07-23 00:44:00,49.6,49.1,29.97,WNW,292,3.6,4.9,98,0.00,,---,0.00,VWS V14.01,2013-07-23 07:44:00,
2013-07-23 00:49:00,49.5,48.9,29.97,WSW,248,5.4,6.0,98,0.00,,---,0.00,VWS V14.01,2013-07-23 07:49:00,
2013-07-23 00:50:00,49.5,48.9,29.97,WSW,248,5.4,6.0,98,0.00,,---,0.00,VWS V14.01,2013-07-23 07:50:00,
2013-07-23 00:54:00,49.5,48.9,29.97,WNW,292,3.6,5.4,98,0.00,,---,0.00,VWS V14.01,2013-07-23 07:54:00,
2013-07-23 00:59:00,49.5,48.9,29.97,NNW,338,2.5,5.6,98,0.00,,---,0.00,VWS V14.01,2013-07-23 07:59:00,
2013-07-23 01:00:00,49.5,48.9,29.97,NNW,338,2.5,5.6,98,0.00,,---,0.00,VWS V14.01,2013-07-23 08:00:00,
2013-07-23 01:04:00,49.3,48.7,29.97,WNW,292,2.9,4.9,98,0.00,,---,0.00,VWS V14.01,2013-07-23 08:04:00,
2013-07-23 01:09:00,49.3,48.7,29.97,WNW,292,2.9,5.8,98,0.00,,---,0.00,VWS V14.01,2013-07-23 08:09:00,
2013-07-23 01:10:00,49.3,48.7,29.97,WNW,292,2.0,5.8,98,0.00,,---,0.00,VWS V14.01,2013-07-23 08:10:00,
2013-07-23 01:14:00,49.3,48.7,29.97,WNW,292,1.6,4.0,98,0.00,,---,0.00,VWS V14.01,2013-07-23 08:14:00,
2013-07-23 01:19:00,49.5,48.9,29.97,WNW,292,1.6,4.0,98,0.00,,---,0.00,VWS V14.01,2013-07-23 08:19:00,
2013-07-23 01:20:00,49.5,48.9,29.97,NW,315,2.5,4.0,98,0.00,,---,0.00,VWS V14.01,2013-07-23 08:20:00,
2013-07-23 01:24:00,49.5,48.9,29.97,NNW,338,2.7,2.7,98,0.00,,---,0.00,VWS V14.01,2013-07-23 08:24:00,
2013-07-23 01:29:00,49.5,48.9,29.97,NNW,338,1.1,3.6,98,0.00,,---,0.00,VWS V14.01,2013-07-23 08:29:00,
2013-07-23 01:30:00,49.5,48.9,29.97,NNW,338,1.1,3.6,98,0.00,,---,0.00,VWS V14.01,2013-07-23 08:30:00,
2013-07-23 01:34:00,49.6,49.1,29.97,NNW,338,2.0,3.1,98,0.00,,---,0.00,VWS V14.01,2013-07-23 08:34:00,
2013-07-23 01:39:00,49.8,49.3,29.97,NW,315,2.5,3.6,98,0.00,,---,0.00,VWS V14.01,2013-07-23 08:39:00,
2013-07-23 01:40:00,49.8,49.3,29.97,NW,315,2.5,3.6,98,0.00,,---,0.00,VWS V14.01,2013-07-23 08:40:00,
2013-07-23 01:44:00,49.8,49.3,29.97,WNW,292,3.8,6.0,98,0.00,,---,0.00,VWS V14.01,2013-07-23 08:44:00,
2013-07-23 01:49:00,49.8,49.3,29.97,WNW,292,4.3,6.0,98,0.00,,---,0.00,VWS V14.01,2013-07-23 08:49:00,
2013-07-23 01:50:00,49.8,49.3,29.97,WNW,292,2.5,6.0,98,0.00,,---,0.00,VWS V14.01,2013-07-23 08:50:00,
2013-07-23 01:54:00,49.6,49.1,29.97,NNW,338,4.9,6.0,98,0.00,,---,0.00,VWS V14.01,2013-07-23 08:54:00,
2013-07-23 01:59:00,49.6,49.1,29.97,NW,315,2.7,6.0,98,0.00,,---,0.00,VWS V14.01,2013-07-23 08:59:00,
2013-07-23 02:00:00,49.6,49.1,29.97,NNW,338,2.7,6.0,98,0.00,,---,0.00,VWS V14.01,2013-07-23 09:00:00,
2013-07-23 02:04:00,49.6,49.1,29.97,NNW,338,2.5,5.8,98,0.00,,---,0.00,VWS V14.01,2013-07-23 09:04:00,
2013-07-23 02:09:00,49.6,49.1,29.97,WNW,292,2.2,5.8,98,0.00,,---,0.00,VWS V14.01,2013-07-23 09:09:00,
2013-07-23 02:10:00,49.6,49.1,29.97,WNW,292,2.2,5.8,98,0.00,,---,0.00,VWS V14.01,2013-07-23 09:10:00,
2013-07-23 02:15:00,49.6,49.1,29.97,NW,315,2.9,3.8,98,0.00,,---,0.00,VWS V14.01,2013-07-23 09:15:00,
2013-07-23 02:20:00,49.6,49.1,29.97,NW,315,3.4,5.8,98,0.00,,---,0.00,VWS V14.01,2013-07-23 09:20:00,
2013-07-23 02:25:00,49.5,48.9,29.97,NW,315,2.7,4.9,98,0.00,,---,0.00,VWS V14.01,2013-07-23 09:25:00,
2013-07-23 02:30:00,49.6,49.1,29.97,WNW,292,2.9,4.9,98,0.00,,---,0.00,VWS V14.01,2013-07-23 09:30:00,
2013-07-23 02:35:00,49.5,48.9,29.97,NNW,338,3.8,5.8,98,0.00,,---,0.00,VWS V14.01,2013-07-23 09:35:00,
2013-07-23 02:40:00,49.5,48.9,29.97,NNW,338,2.9,5.8,98,0.00,,---,0.00,VWS V14.01,2013-07-23 09:40:00,
2013-07-23 02:45:00,49.5,48.9,29.97,WNW,292,4.3,4.3,98,0.00,,---,0.00,VWS V14.01,2013-07-23 09:45:00,
2013-07-23 02:50:00,49.3,48.7,29.97,NW,315,3.1,4.3,98,0.00,,---,0.00,VWS V14.01,2013-07-23 09:50:00,
2013-07-23 02:55:00,49.3,48.7,29.97,WNW,292,2.0,4.3,98,0.00,,---,0.00,VWS V14.01,2013-07-23 09:55:00,
2013-07-23 03:00:00,49.1,48.6,29.97,NNE,22,2.0,4.5,98,0.00,,---,0.00,VWS V14.01,2013-07-23 10:00:00,
2013-07-23 03:05:00,48.9,48.4,29.97,WNW,292,3.4,4.9,98,0.00,,---,0.00,VWS V14.01,2013-07-23 10:05:00,
2013-07-23 03:10:00,49.1,48.6,29.97,NNW,338,3.1,3.1,98,0.00,,---,0.00,VWS V14.01,2013-07-23 10:10:00,
2013-07-23 03:15:00,48.9,48.4,29.97,NW,315,3.1,3.8,98,0.00,,---,0.00,VWS V14.01,2013-07-23 10:15:00,
2013-07-23 03:20:00,48.9,48.4,29.97,NNW,338,2.0,2.0,98,0.00,,---,0.00,VWS V14.01,2013-07-23 10:20:00,
2013-07-23 03:25:00,48.9,48.4,29.97,WNW,292,3.1,3.1,98,0.00,,---,0.00,VWS V14.01,2013-07-23 10:25:00,
2013-07-23 03:30:00,48.9,48.4,29.97,NNW,338,3.1,3.1,98,0.00,,---,0.00,VWS V14.01,2013-07-23 10:30:00,
2013-07-23 03:35:00,48.9,48.4,29.97,NNW,338,2.9,3.4,98,0.00,,---,0.00,VWS V14.01,2013-07-23 10:35:00,
2013-07-23 03:40:00,48.9,48.4,29.97,WNW,292,2.0,2.0,98,0.00,,---,0.00,VWS V14.01,2013-07-23 10:40:00,
2013-07-23 03:45:00,48.7,48.2,29.97,NW,315,1.1,2.5,98,0.00,,---,0.00,VWS V14.01,2013-07-23 10:45:00,
2013-07-23 03:50:00,48.7,48.2,29.97,NW,315,2.0,2.9,98,0.00,,---,0.00,VWS V14.01,2013-07-23 10:50:00,
2013-07-23 03:55:00,48.7,48.2,29.97,WNW,292,0.9,2.9,98,0.00,,---,0.00,VWS V14.01,2013-07-23 10:55:00,
2013-07-23 04:00:00,48.7,48.2,29.97,WNW,292,0.0,0.0,98,0.00,,---,0.00,VWS V14.01,2013-07-23 11:00:00,
2013-07-23 04:05:00,48.7,48.2,29.97,NNW,338,0.0,1.3,98,0.00,,---,0.00,VWS V14.01,2013-07-23 11:05:00,
2013-07-23 04:10:00,48.7,48.2,29.97,NNW,338,0.0,1.3,98,0.00,,---,0.00,VWS V14.01,2013-07-23 11:10:00,
2013-07-23 04:15:00,48.7,48.2,29.97,ENE,68,0.0,0.0,98,0.00,,---,0.00,VWS V14.01,2013-07-23 11:15:00,
2013-07-23 04:20:00,48.7,48.2,29.97,ESE,112,0.0,0.0,98,0.00,,---,0.00,VWS V14.01,2013-07-23 11:20:00,
2013-07-23 04:25:00,48.9,48.4,29.97,SSE,158,0.0,0.0,98,0.00,,---,0.00,VWS V14.01,2013-07-23 11:25:00,
2013-07-23 04:30:00,48.9,48.4,29.97,SE,135,0.0,0.0,98,0.00,,---,0.00,VWS V14.01,2013-07-23 11:30:00,
2013-07-23 04:35:00,48.9,48.4,29.97,SE,135,0.0,0.0,98,0.00,,---,0.00,VWS V14.01,2013-07-23 11:35:00,
2013-07-23 04:40:00,48.9,48.4,29.97,SE,135,0.0,0.0,98,0.00,,---,0.00,VWS V14.01,2013-07-23 11:40:00,
2013-07-23 04:45:00,48.9,48.4,29.97,ESE,112,0.0,0.0,98,0.00,,---,0.00,VWS V14.01,2013-07-23 11:45:00,
2013-07-23 04:50:00,48.9,48.4,29.97,NNE,22,0.0,0.0,98,0.00,,---,0.00,VWS V14.01,2013-07-23 11:50:00,
2013-07-23 04:55:00,48.9,48.4,29.97,ENE,68,0.0,0.0,98,0.00,,---,0.00,VWS V14.01,2013-07-23 11:55:00,
2013-07-23 05:00:00,48.9,48.4,29.97,NNE,22,0.0,0.0,98,0.00,,---,0.00,VWS V14.01,2013-07-23 12:00:00,
2013-07-23 05:05:00,48.9,48.4,29.97,WNW,292,0.0,1.6,98,0.00,,---,0.00,VWS V14.01,2013-07-23 12:05:00,
2013-07-23 05:10:00,48.9,48.4,29.97,WNW,292,1.1,2.0,98,0.00,,---,0.00,VWS V14.01,2013-07-23 12:10:00,
2013-07-23 05:15:00,48.9,48.4,29.97,NW,315,1.1,2.0,98,0.00,,---,0.00,VWS V14.01,2013-07-23 12:15:00,
2013-07-23 05:20:00,48.7,48.2,29.97,NW,315,0.0,2.0,98,0.00,,---,0.00,VWS V14.01,2013-07-23 12:20:00,
2013-07-23 05:21:00,48.9,48.4,29.97,NW,315,0.0,0.0,98,0.00,,---,0.00,VWS V14.01,2013-07-23 12:21:00,
2013-07-23 05:26:00,48.9,48.4,29.97,NW,315,1.3,2.0,98,0.00,,---,0.00,VWS V14.01,2013-07-23 12:26:00,
2013-07-23 05:30:00,49.1,48.6,29.97,NNW,338,4.0,4.3,98,0.00,,---,0.00,VWS V14.01,2013-07-23 12:30:00,
2013-07-23 05:31:00,48.9,48.4,29.97,NNW,338,4.0,4.0,98,0.00,,---,0.00,VWS V14.01,2013-07-23 12:31:00,
2013-07-23 05:36:00,48.9,48.4,29.97,NNW,338,3.1,4.0,98,0.00,,---,0.00,VWS V14.01,2013-07-23 12:36:00,
2013-07-23 05:40:00,48.9,48.4,29.97,WNW,292,1.3,4.0,98,0.00,,---,0.00,VWS V14.01,2013-07-23 12:40:00,
2013-07-23 05:41:00,48.9,48.4,29.97,WNW,292,3.8,3.8,98,0.00,,---,0.00,VWS V14.01,2013-07-23 12:41:00,
2013-07-23 05:46:00,48.7,48.2,29.97,WNW,292,4.7,4.7,98,0.00,,---,0.00,VWS V14.01,2013-07-23 12:46:00,
2013-07-23 05:50:00,48.7,48.2,29.97,NW,315,2.5,4.7,98,0.00,,---,0.00,VWS V14.01,2013-07-23 12:50:00,
2013-07-23 05:51:00,48.7,48.2,29.97,NW,315,2.5,2.5,98,0.00,,---,0.00,VWS V14.01,2013-07-23 12:51:00,
2013-07-23 05:56:00,48.6,48.0,29.97,NNW,338,2.7,4.0,98,0.00,,---,0.00,VWS V14.01,2013-07-23 12:56:00,
2013-07-23 06:00:00,48.6,48.0,29.97,WNW,292,1.6,4.7,98,0.00,,---,0.00,VWS V14.01,2013-07-23 13:00:00,
2013-07-23 06:01:00,48.6,48.0,29.97,WNW,292,1.6,1.6,98,0.00,,---,0.00,VWS V14.01,2013-07-23 13:01:00,
2013-07-23 06:06:00,48.7,48.2,29.97,WNW,292,0.0,2.9,98,0.00,,---,0.00,VWS V14.01,2013-07-23 13:06:00,
2013-07-23 06:10:00,48.7,48.2,29.97,NW,315,2.7,2.9,98,0.00,,---,0.00,VWS V14.01,2013-07-23 13:10:00,
2013-07-23 06:11:00,48.7,48.2,29.97,NW,315,3.8,4.0,98,0.00,,---,0.00,VWS V14.01,2013-07-23 13:11:00,
2013-07-23 06:16:00,48.6,48.0,29.97,NW,315,2.2,4.0,98,0.00,,---,0.00,VWS V14.01,2013-07-23 13:16:00,
2013-07-23 06:20:00,48.7,48.2,29.97,WNW,292,0.0,4.0,98,0.00,,---,0.00,VWS V14.01,2013-07-23 13:20:00,
2013-07-23 06:21:00,48.7,48.2,29.97,WNW,292,0.0,0.0,98,0.00,,---,0.00,VWS V14.01,2013-07-23 13:21:00,
2013-07-23 06:26:00,48.7,48.2,29.97,WNW,292,0.0,0.0,98,0.00,,---,0.00,VWS V14.01,2013-07-23 13:26:00,
2013-07-23 06:30:00,48.7,48.2,29.97,WNW,292,0.0,0.0,98,0.00,,---,0.00,VWS V14.01,2013-07-23 13:30:00,
2013-07-23 06:31:00,48.7,48.2,29.97,WNW,292,1.1,1.1,98,0.00,,---,0.00,VWS V14.01,2013-07-23 13:31:00,
2013-07-23 06:36:00,48.6,48.0,29.97,WNW,292,0.0,1.3,98,0.00,,---,0.00,VWS V14.01,2013-07-23 13:36:00,
2013-07-23 06:40:00,48.6,48.0,29.97,WNW,292,0.0,1.3,98,0.00,,---,0.00,VWS V14.01,2013-07-23 13:40:00,
2013-07-23 06:41:00,48.6,48.0,29.97,SSE,158,1.1,1.1,98,0.00,,---,0.00,VWS V14.01,2013-07-23 13:41:00,
2013-07-23 06:46:00,48.7,48.2,29.97,SSE,158,0.0,1.1,98,0.00,,---,0.00,VWS V14.01,2013-07-23 13:46:00,
2013-07-23 06:50:00,48.7,48.2,29.97,SSE,158,0.0,1.1,98,0.00,,---,0.00,VWS V14.01,2013-07-23 13:50:00,
2013-07-23 06:51:00,48.7,48.2,29.97,SSE,158,0.0,0.0,98,0.00,,---,0.00,VWS V14.01,2013-07-23 13:51:00,
2013-07-23 06:56:00,48.9,48.4,29.97,SSE,158,0.0,0.0,98,0.00,,---,0.00,VWS V14.01,2013-07-23 13:56:00,
2013-07-23 07:00:00,48.7,48.2,29.97,SSE,158,0.0,0.0,98,0.00,,---,0.00,VWS V14.01,2013-07-23 14:00:00,
2013-07-23 07:01:00,48.9,48.4,29.97,ESE,112,0.0,1.6,98,0.00,,---,0.00,VWS V14.01,2013-07-23 14:01:00,
2013-07-23 07:06:00,48.9,48.4,29.97,SSE,158,0.0,1.6,98,0.00,,---,0.00,VWS V14.01,2013-07-23 14:06:00,
2013-07-23 07:10:00,48.9,48.4,29.97,ESE,112,0.0,1.6,98,0.00,,---,0.00,VWS V14.01,2013-07-23 14:10:00,
2013-07-23 07:11:00,48.9,48.4,29.97,ESE,112,0.0,0.0,98,0.00,,---,0.00,VWS V14.01,2013-07-23 14:11:00,
2013-07-23 07:16:00,49.1,48.6,29.97,NNE,22,0.0,0.0,98,0.00,,---,0.00,VWS V14.01,2013-07-23 14:16:00,
2013-07-23 07:20:00,49.3,48.7,29.97,NE,45,0.0,0.0,98,0.00,,---,0.00,VWS V14.01,2013-07-23 14:20:00,
2013-07-23 07:21:00,49.5,48.9,29.97,ESE,112,0.0,1.6,98,0.00,,---,0.00,VWS V14.01,2013-07-23 14:21:00,
2013-07-23 07:24:00,49.5,48.9,29.97,East,90,1.3,1.6,98,0.00,,---,0.00,VWS V14.01,2013-07-23 14:24:00,
2013-07-23 07:29:00,49.5,48.9,29.97,ESE,112,0.0,1.6,98,0.00,,---,0.00,VWS V14.01,2013-07-23 14:29:00,
2013-07-23 07:30:00,49.5,48.9,29.97,ESE,112,0.0,1.6,98,0.00,,---,0.00,VWS V14.01,2013-07-23 14:30:00,
2013-07-23 07:34:00,49.5,48.9,30.00,NNW,338,0.0,2.0,98,0.00,,---,0.00,VWS V14.01,2013-07-23 14:34:00,
2013-07-23 07:39:00,49.3,48.7,30.00,NW,315,1.3,4.0,98,0.00,,---,0.00,VWS V14.01,2013-07-23 14:39:00,
2013-07-23 07:40:00,49.3,48.7,30.00,WNW,292,2.0,4.0,98,0.00,,---,0.00,VWS V14.01,2013-07-23 14:40:00,
2013-07-23 07:44:00,49.5,48.9,30.00,WNW,292,0.9,2.0,98,0.00,,---,0.00,VWS V14.01,2013-07-23 14:44:00,
2013-07-23 07:49:00,49.5,48.9,29.97,NNW,338,3.6,3.6,98,0.00,,---,0.00,VWS V14.01,2013-07-23 14:49:00,
2013-07-23 07:50:00,49.5,48.9,29.97,NW,315,3.8,3.8,98,0.00,,---,0.00,VWS V14.01,2013-07-23 14:50:00,
2013-07-23 07:54:00,49.3,48.7,29.97,NNW,338,3.6,4.7,98,0.00,,---,0.00,VWS V14.01,2013-07-23 14:54:00,
2013-07-23 08:00:00,49.3,48.7,29.97,NNW,338,4.0,4.7,98,0.00,,---,0.00,VWS V14.01,2013-07-23 15:00:00,
2013-07-23 08:05:00,49.5,48.9,30.00,WNW,292,4.0,4.0,98,0.00,,---,0.00,VWS V14.01,2013-07-23 15:05:00,
2013-07-23 08:10:00,49.5,48.9,30.00,WNW,292,2.5,4.9,98,0.00,,---,0.00,VWS V14.01,2013-07-23 15:10:00,
2013-07-23 08:15:00,49.3,48.7,30.00,WNW,292,4.0,4.0,98,0.00,,---,0.00,VWS V14.01,2013-07-23 15:15:00,
2013-07-23 08:20:00,49.3,48.7,30.00,WNW,292,3.8,5.8,98,0.00,,---,0.00,VWS V14.01,2013-07-23 15:20:00,
2013-07-23 08:25:00,49.1,48.6,30.00,NW,315,3.8,6.0,98,0.00,,---,0.00,VWS V14.01,2013-07-23 15:25:00,
2013-07-23 08:30:00,49.3,48.7,30.00,WNW,292,2.9,6.0,98,0.00,,---,0.00,VWS V14.01,2013-07-23 15:30:00,
2013-07-23 08:35:00,48.9,48.4,30.00,NW,315,3.4,4.0,98,0.00,,---,0.00,VWS V14.01,2013-07-23 15:35:00,
2013-07-23 08:40:00,49.1,48.6,30.00,NNW,338,2.9,2.9,98,0.00,,---,0.00,VWS V14.01,2013-07-23 15:40:00,
2013-07-23 08:45:00,49.3,48.7,30.00,NW,315,0.0,4.7,98,0.00,,---,0.00,VWS V14.01,2013-07-23 15:45:00,
2013-07-23 08:50:00,49.3,48.7,30.00,WNW,292,1.6,1.6,98,0.00,,---,0.00,VWS V14.01,2013-07-23 15:50:00,
2013-07-23 08:55:00,49.8,49.3,30.00,WNW,292,2.7,2.7,98,0.00,,---,0.00,VWS V14.01,2013-07-23 15:55:00,
2013-07-23 09:00:00,49.6,49.1,30.00,WNW,292,3.4,3.4,98,0.00,,---,0.00,VWS V14.01,2013-07-23 16:00:00,
2013-07-23 09:06:00,49.5,48.9,30.00,WNW,292,4.0,4.0,98,0.00,,---,0.00,VWS V14.01,2013-07-23 16:06:00,
2013-07-23 09:10:00,49.5,48.9,30.00,NNW,338,3.6,4.0,98,0.00,,---,0.00,VWS V14.01,2013-07-23 16:10:00,
2013-07-23 09:11:00,49.5,48.9,30.00,WNW,292,1.6,3.6,98,0.00,,---,0.00,VWS V14.01,2013-07-23 16:11:00,
2013-07-23 09:16:00,49.5,48.9,30.00,WNW,292,1.6,3.6,98,0.00,,---,0.00,VWS V14.01,2013-07-23 16:16:00,
2013-07-23 09:20:00,49.3,48.7,30.00,NNW,338,1.1,3.6,98,0.00,,---,0.00,VWS V14.01,2013-07-23 16:20:00,
2013-07-23 09:21:00,49.3,48.7,30.00,WNW,292,2.0,2.0,98,0.00,,---,0.00,VWS V14.01,2013-07-23 16:21:00,
2013-07-23 09:26:00,49.6,49.1,30.00,NNW,338,2.2,2.5,98,0.00,,---,0.00,VWS V14.01,2013-07-23 16:26:00,
2013-07-23 09:30:00,49.6,49.1,30.00,NNW,338,2.0,3.4,98,0.00,,---,0.00,VWS V14.01,2013-07-23 16:30:00,
2013-07-23 09:31:00,49.6,49.1,30.00,NNW,338,0.0,2.0,98,0.00,,---,0.00,VWS V14.01,2013-07-23 16:31:00,
2013-07-23 09:36:00,50.4,49.8,30.00,WNW,292,1.3,3.4,98,0.00,,---,0.00,VWS V14.01,2013-07-23 16:36:00,
2013-07-23 09:40:00,50.5,50.0,30.00,NNW,338,4.0,4.9,98,0.00,,---,0.00,VWS V14.01,2013-07-23 16:40:00,
2013-07-23 09:44:00,50.0,49.5,30.00,WNW,292,2.5,5.6,98,0.00,,---,0.00,VWS V14.01,2013-07-23 16:44:00,
2013-07-23 09:49:00,50.0,49.5,30.00,NNW,338,3.8,5.6,98,0.00,,---,0.00,VWS V14.01,2013-07-23 16:49:00,
2013-07-23 09:50:00,50.0,49.5,30.00,NNW,338,3.8,5.6,98,0.00,,---,0.00,VWS V14.01,2013-07-23 16:50:00,
2013-07-23 09:54:00,50.2,49.6,30.00,NW,315,3.6,4.3,98,0.00,,---,0.00,VWS V14.01,2013-07-23 16:54:00,
2013-07-23 09:59:00,50.2,49.6,30.00,WNW,292,3.6,6.3,98,0.00,,---,0.00,VWS V14.01,2013-07-23 16:59:00,
2013-07-23 10:00:00,50.2,49.6,30.00,WNW,292,3.6,6.3,98,0.00,,---,0.00,VWS V14.01,2013-07-23 17:00:00,
2013-07-23 10:05:00,50.5,50.0,30.00,WNW,292,3.6,4.9,98,0.00,,---,0.00,VWS V14.01,2013-07-23 17:05:00,
2013-07-23 10:10:00,50.5,50.0,30.00,NNW,338,2.7,4.9,98,0.00,,---,0.00,VWS V14.01,2013-07-23 17:10:00,
2013-07-23 10:15:00,50.5,50.0,30.00,WNW,292,6.3,6.3,98,0.00,,---,0.00,VWS V14.01,2013-07-23 17:15:00,
2013-07-23 10:20:00,50.2,49.6,30.00,WNW,292,4.3,7.2,98,0.00,,---,0.00,VWS V14.01,2013-07-23 17:20:00,
2013-07-23 10:25:00,50.2,49.6,30.00,NW,315,3.4,6.5,98,0.00,,---,0.00,VWS V14.01,2013-07-23 17:25:00,
2013-07-23 10:30:00,50.2,49.6,30.00,NW,315,5.4,7.6,98,0.00,,---,0.00,VWS V14.01,2013-07-23 17:30:00,
2013-07-23 10:35:00,50.2,49.6,30.00,WNW,292,3.6,5.8,98,0.00,,---,0.00,VWS V14.01,2013-07-23 17:35:00,
2013-07-23 10:40:00,50.5,50.0,30.00,WNW,292,8.5,8.5,98,0.00,,---,0.00,VWS V14.01,2013-07-23 17:40:00,
2013-07-23 10:45:00,50.2,49.6,30.00,NNW,338,3.4,8.5,98,0.00,,---,0.00,VWS V14.01,2013-07-23 17:45:00,
2013-07-23 10:50:00,50.2,49.6,30.00,NW,315,5.8,8.5,98,0.00,,---,0.00,VWS V14.01,2013-07-23 17:50:00,
2013-07-23 10:56:00,50.5,50.0,30.00,NNW,338,4.3,7.6,98,0.00,,---,0.00,VWS V14.01,2013-07-23 17:56:00,
2013-07-23 11:00:00,50.5,50.0,30.00,North,0,3.1,7.6,98,0.00,,---,0.00,VWS V14.01,2013-07-23 18:00:00,
2013-07-23 11:01:00,50.5,50.0,30.00,WNW,292,4.3,4.3,98,0.00,,---,0.00,VWS V14.01,2013-07-23 18:01:00,
2013-07-23 11:06:00,50.4,49.8,30.00,NNW,338,6.3,6.3,98,0.00,,---,0.00,VWS V14.01,2013-07-23 18:06:00,
2013-07-23 11:10:00,50.2,49.6,30.00,WNW,292,5.8,6.3,98,0.00,,---,0.00,VWS V14.01,2013-07-23 18:10:00,
2013-07-23 11:11:00,50.4,49.8,30.00,WNW,292,8.5,8.5,98,0.00,,---,0.00,VWS V14.01,2013-07-23 18:11:00,
2013-07-23 11:16:00,50.5,50.0,30.00,WNW,292,3.6,8.5,98,0.00,,---,0.00,VWS V14.01,2013-07-23 18:16:00,
2013-07-23 11:20:00,50.7,50.2,30.00,WNW,292,4.3,8.5,98,0.00,,---,0.00,VWS V14.01,2013-07-23 18:20:00,
2013-07-23 11:21:00,50.9,50.4,30.00,WNW,292,2.7,5.6,98,0.00,,---,0.00,VWS V14.01,2013-07-23 18:21:00,
2013-07-23 11:27:00,51.1,50.5,30.00,NW,315,3.6,7.6,98,0.00,,---,0.00,VWS V14.01,2013-07-23 18:27:00,
2013-07-23 11:30:00,51.3,50.7,30.00,NNW,338,3.8,7.6,98,0.00,,---,0.00,VWS V14.01,2013-07-23 18:30:00,
2013-07-23 11:32:00,51.4,50.9,30.00,NNW,338,3.1,5.6,98,0.00,,---,0.00,VWS V14.01,2013-07-23 18:32:00,
2013-07-23 11:37:00,51.1,50.5,30.00,WNW,292,6.3,7.8,98,0.00,,---,0.00,VWS V14.01,2013-07-23 18:37:00,
2013-07-23 11:40:00,51.4,50.9,30.00,NNW,338,6.0,7.8,98,0.00,,---,0.00,VWS V14.01,2013-07-23 18:40:00,
2013-07-23 11:42:00,51.3,50.7,30.00,WNW,292,5.8,6.3,98,0.00,,---,0.00,VWS V14.01,2013-07-23 18:42:00,
2013-07-23 11:48:00,51.4,50.9,30.00,NNW,338,5.6,6.5,98,0.00,,---,0.00,VWS V14.01,2013-07-23 18:48:00,
2013-07-23 11:50:00,51.4,50.9,30.00,WNW,292,8.7,8.7,98,0.00,,---,0.00,VWS V14.01,2013-07-23 18:50:00,
2013-07-23 11:53:00,51.4,50.9,30.00,NNW,338,4.7,8.7,98,0.00,,---,0.00,VWS V14.01,2013-07-23 18:53:00,
2013-07-23 11:58:00,51.8,51.3,30.00,NNW,338,4.0,8.7,98,0.00,,---,0.00,VWS V14.01,2013-07-23 18:58:00,
2013-07-23 12:00:00,52.0,51.4,30.00,NNW,338,2.5,8.7,98,0.00,,---,0.00,VWS V14.01,2013-07-23 19:00:00,
2013-07-23 12:03:00,52.2,51.6,30.00,NNW,338,6.5,8.5,98,0.00,,---,0.00,VWS V14.01,2013-07-23 19:03:00,
2013-07-23 12:08:00,52.2,51.6,30.00,WNW,292,5.4,8.5,98,0.00,,---,0.00,VWS V14.01,2013-07-23 19:08:00,
2013-07-23 12:10:00,52.2,51.6,30.00,NNE,22,3.8,8.5,98,0.00,,---,0.00,VWS V14.01,2013-07-23 19:10:00,
2013-07-23 12:13:00,52.5,52.0,30.00,WNW,292,4.9,4.9,98,0.00,,---,0.00,VWS V14.01,2013-07-23 19:13:00,
2013-07-23 12:18:00,52.7,52.2,30.00,WNW,292,5.8,5.8,98,0.00,,---,0.00,VWS V14.01,2013-07-23 19:18:00,
2013-07-23 12:20:00,52.5,52.0,30.00,WNW,292,5.6,5.8,98,0.00,,---,0.00,VWS V14.01,2013-07-23 19:20:00,
2013-07-23 12:24:00,52.9,52.3,30.00,NW,315,5.4,6.5,98,0.00,,---,0.00,VWS V14.01,2013-07-23 19:24:00,
2013-07-23 12:29:00,52.7,52.2,30.00,WNW,292,7.4,7.8,98,0.00,,---,0.00,VWS V14.01,2013-07-23 19:29:00,
2013-07-23 12:30:00,52.5,52.0,30.00,WNW,292,5.8,7.8,98,0.00,,---,0.00,VWS V14.01,2013-07-23 19:30:00,
2013-07-23 12:34:00,52.9,52.3,30.00,NNW,338,7.2,8.5,98,0.00,,---,0.00,VWS V14.01,2013-07-23 19:34:00,
2013-07-23 12:39:00,53.1,52.5,30.00,NNE,22,9.0,9.6,98,0.00,,---,0.00,VWS V14.01,2013-07-23 19:39:00,
2013-07-23 12:40:00,53.1,52.5,30.00,WNW,292,4.3,9.6,98,0.00,,---,0.00,VWS V14.01,2013-07-23 19:40:00,
2013-07-23 12:45:00,53.4,52.9,30.00,WNW,292,6.3,6.3,98,0.00,,---,0.00,VWS V14.01,2013-07-23 19:45:00,
2013-07-23 12:50:00,53.4,52.9,29.97,WNW,292,3.8,6.3,98,0.00,,---,0.00,VWS V14.01,2013-07-23 19:50:00,
2013-07-23 12:55:00,53.4,52.9,29.97,WNW,292,4.3,8.1,98,0.00,,---,0.00,VWS V14.01,2013-07-23 19:55:00,
2013-07-23 13:00:00,53.8,53.2,29.97,NNW,338,3.6,4.3,98,0.00,,---,0.00,VWS V14.01,2013-07-23 20:00:00,
2013-07-23 13:06:00,53.8,53.0,30.00,NNW,338,3.8,8.1,97,0.00,,---,0.00,VWS V14.01,2013-07-23 20:06:00,
2013-07-23 13:10:00,53.6,52.8,30.00,WNW,292,8.7,9.8,97,0.00,,---,0.00,VWS V14.01,2013-07-23 20:10:00,
2013-07-23 13:11:00,53.6,52.8,30.00,WNW,292,6.0,8.7,97,0.00,,---,0.00,VWS V14.01,2013-07-23 20:11:00,
2013-07-23 13:16:00,53.4,52.6,30.00,NNW,338,6.0,8.7,97,0.00,,---,0.00,VWS V14.01,2013-07-23 20:16:00,
2013-07-23 13:20:00,53.2,52.4,30.00,NNW,338,10.1,10.1,97,0.00,,---,0.00,VWS V14.01,2013-07-23 20:20:00,
2013-07-23 13:22:00,53.4,52.6,30.00,NNW,338,4.3,10.1,97,0.00,,---,0.00,VWS V14.01,2013-07-23 20:22:00,
2013-07-23 13:27:00,53.6,52.5,30.00,NNW,338,5.6,10.1,96,0.00,,---,0.00,VWS V14.01,2013-07-23 20:27:00,
2013-07-23 13:30:00,53.8,52.7,30.00,NNW,338,8.7,10.1,96,0.00,,---,0.00,VWS V14.01,2013-07-23 20:30:00,
2013-07-23 13:32:00,53.6,52.5,30.00,NW,315,7.4,8.7,96,0.00,,---,0.00,VWS V14.01,2013-07-23 20:32:00,
2013-07-23 13:37:00,53.6,52.5,30.00,NNW,338,7.4,9.6,96,0.00,,---,0.00,VWS V14.01,2013-07-23 20:37:00,
2013-07-23 13:40:00,53.8,52.7,30.00,WNW,292,9.8,9.8,96,0.00,,---,0.00,VWS V14.01,2013-07-23 20:40:00,
2013-07-23 13:43:00,54.0,52.8,30.00,NNW,338,5.8,9.8,96,0.00,,---,0.00,VWS V14.01,2013-07-23 20:43:00,
2013-07-23 13:49:00,54.1,53.0,29.97,NNW,338,3.8,9.8,96,0.00,,---,0.00,VWS V14.01,2013-07-23 20:49:00,
2013-07-23 13:50:00,54.5,53.4,29.97,WNW,292,3.8,9.8,96,0.00,,---,0.00,VWS V14.01,2013-07-23 20:50:00,
2013-07-23 13:54:00,54.9,53.7,29.97,NNW,338,9.8,9.8,96,0.00,,---,0.00,VWS V14.01,2013-07-23 20:54:00,
2013-07-23 13:59:00,54.9,53.7,29.97,NNW,338,5.4,9.8,96,0.00,,---,0.00,VWS V14.01,2013-07-23 20:59:00,
2013-07-23 14:00:00,54.7,53.3,29.97,NNW,338,4.7,9.8,95,0.00,,---,0.00,VWS V14.01,2013-07-23 21:00:00,
2013-07-23 14:04:00,54.5,53.1,29.97,NNW,338,7.6,9.2,95,0.00,,---,0.00,VWS V14.01,2013-07-23 21:04:00,
2013-07-23 14:09:00,54.5,53.1,29.97,NNW,338,9.6,9.6,95,0.00,,---,0.00,VWS V14.01,2013-07-23 21:09:00,
2013-07-23 14:10:00,54.5,53.1,29.97,NNW,338,9.6,9.6,95,0.00,,---,0.00,VWS V14.01,2013-07-23 21:10:00,
2013-07-23 14:15:00,54.1,52.5,29.97,WNW,292,5.8,9.6,94,0.00,,---,0.00,VWS V14.01,2013-07-23 21:15:00,
2013-07-23 14:20:00,54.1,52.5,29.97,WNW,292,5.4,9.6,94,0.00,,---,0.00,VWS V14.01,2013-07-23 21:20:00,
2013-07-23 14:21:00,54.1,52.5,29.97,NNW,338,4.0,5.4,94,0.00,,---,0.00,VWS V14.01,2013-07-23 21:21:00,
2013-07-23 14:26:00,54.5,52.8,29.97,NNW,338,12.1,12.1,94,0.00,,---,0.00,VWS V14.01,2013-07-23 21:26:00,
2013-07-23 14:30:00,54.0,52.3,29.97,WNW,292,6.5,12.1,94,0.00,,---,0.00,VWS V14.01,2013-07-23 21:30:00,
2013-07-23 14:31:00,54.0,52.3,29.97,NW,315,7.2,7.2,94,0.00,,---,0.00,VWS V14.01,2013-07-23 21:31:00,
2013-07-23 14:36:00,54.9,53.2,29.97,NNW,338,7.8,7.8,94,0.00,,---,0.00,VWS V14.01,2013-07-23 21:36:00,
2013-07-23 14:40:00,54.9,53.2,29.97,WNW,292,6.3,7.8,94,0.00,,---,0.00,VWS V14.01,2013-07-23 21:40:00,
2013-07-23 14:41:00,54.9,53.2,29.97,WNW,292,5.8,6.3,94,0.00,,---,0.00,VWS V14.01,2013-07-23 21:41:00,
2013-07-23 14:47:00,54.5,52.5,29.97,NNW,338,4.0,6.5,93,0.00,,---,0.00,VWS V14.01,2013-07-23 21:47:00,
2013-07-23 14:50:00,55.2,53.5,29.97,NNW,338,3.6,8.7,94,0.00,,---,0.00,VWS V14.01,2013-07-23 21:50:00,
2013-07-23 14:52:00,55.0,53.3,29.97,WNW,292,5.6,5.8,94,0.00,,---,0.00,VWS V14.01,2013-07-23 21:52:00,
2013-07-23 14:57:00,54.9,53.2,29.97,NNW,338,5.6,6.0,94,0.00,,---,0.00,VWS V14.01,2013-07-23 21:57:00,
2013-07-23 15:00:00,55.0,53.3,29.97,NNW,338,6.5,7.2,94,0.00,,---,0.00,VWS V14.01,2013-07-23 22:00:00,
2013-07-23 15:03:00,54.9,52.9,29.97,SSE,158,5.8,6.5,93,0.00,,---,0.00,VWS V14.01,2013-07-23 22:03:00,
2013-07-23 15:09:00,54.5,52.5,29.97,NNW,338,7.8,10.3,93,0.00,,---,0.00,VWS V14.01,2013-07-23 22:09:00,
2013-07-23 15:10:00,54.5,52.5,29.97,NNW,338,8.7,10.3,93,0.00,,---,0.00,VWS V14.01,2013-07-23 22:10:00,
2013-07-23 15:14:00,54.9,52.9,29.97,WNW,292,5.8,8.7,93,0.00,,---,0.00,VWS V14.01,2013-07-23 22:14:00,
2013-07-23 15:19:00,55.0,53.3,29.97,NNW,338,5.8,9.6,94,0.00,,---,0.00,VWS V14.01,2013-07-23 22:19:00,
2013-07-23 15:20:00,55.0,53.3,29.97,NNW,338,5.4,9.6,94,0.00,,---,0.00,VWS V14.01,2013-07-23 22:20:00,
2013-07-23 15:24:00,54.7,53.0,29.97,WNW,292,7.6,10.7,94,0.00,,---,0.00,VWS V14.01,2013-07-23 22:24:00,
2013-07-23 15:30:00,54.9,53.2,29.97,NNW,338,3.8,10.7,94,0.00,,---,0.00,VWS V14.01,2013-07-23 22:30:00,
2013-07-23 15:35:00,54.9,53.2,29.97,WNW,292,5.4,7.8,94,0.00,,---,0.00,VWS V14.01,2013-07-23 22:35:00,
2013-07-23 15:40:00,54.9,53.2,29.97,NNW,338,3.1,7.8,94,0.00,,---,0.00,VWS V14.01,2013-07-23 22:40:00,
2013-07-23 15:46:00,55.0,53.3,29.97,NNW,338,6.5,7.8,94,0.00,,---,0.00,VWS V14.01,2013-07-23 22:46:00,
2013-07-23 15:50:00,54.7,53.0,29.97,WNW,292,5.4,7.8,94,0.00,,---,0.00,VWS V14.01,2013-07-23 22:50:00,
2013-07-23 15:52:00,54.9,53.2,29.97,NNW,338,7.8,7.8,94,0.00,,---,0.00,VWS V14.01,2013-07-23 22:52:00,
2013-07-23 15:57:00,54.5,52.8,29.97,NNW,338,4.0,8.7,94,0.00,,---,0.00,VWS V14.01,2013-07-23 22:57:00,
2013-07-23 16:00:00,54.7,53.0,29.97,WNW,292,4.3,8.7,94,0.00,,---,0.00,VWS V14.01,2013-07-23 23:00:00,
2013-07-23 16:02:00,54.5,52.8,29.97,NNW,338,4.9,6.5,94,0.00,,---,0.00,VWS V14.01,2013-07-23 23:02:00,
2013-07-23 16:08:00,54.5,52.8,29.97,WNW,292,5.6,6.5,94,0.00,,---,0.00,VWS V14.01,2013-07-23 23:08:00,
2013-07-23 16:10:00,54.5,52.8,29.97,WNW,292,5.8,6.5,94,0.00,,---,0.00,VWS V14.01,2013-07-23 23:10:00,
2013-07-23 16:13:00,54.3,52.6,29.97,WNW,292,6.0,9.8,94,0.00,,---,0.00,VWS V14.01,2013-07-23 23:13:00,
2013-07-23 16:18:00,54.5,52.8,29.97,NNE,22,6.3,9.8,94,0.00,,---,0.00,VWS V14.01,2013-07-23 23:18:00,
2013-07-23 16:20:00,54.5,53.1,29.97,ENE,68,3.1,9.8,95,0.00,,---,0.00,VWS V14.01,2013-07-23 23:20:00,
2013-07-23 16:23:00,54.3,52.9,29.97,WNW,292,5.6,5.6,95,0.00,,---,0.00,VWS V14.01,2013-07-23 23:23:00,
2013-07-23 16:30:00,54.3,52.9,29.97,NNW,338,7.4,7.4,95,0.00,,---,0.00,VWS V14.01,2013-07-23 23:30:00,
2013-07-23 16:35:00,54.1,52.7,30.00,WNW,292,7.4,8.1,95,0.00,,---,0.00,VWS V14.01,2013-07-23 23:35:00,
2013-07-23 16:40:00,54.1,52.7,30.00,NNW,338,2.9,8.1,95,0.00,,---,0.00,VWS V14.01,2013-07-23 23:40:00,
2013-07-23 16:41:00,54.3,52.9,30.00,NNW,338,3.4,3.4,95,0.00,,---,0.00,VWS V14.01,2013-07-23 23:41:00,
2013-07-23 16:46:00,54.0,52.6,30.00,WNW,292,5.4,6.5,95,0.00,,---,0.00,VWS V14.01,2013-07-23 23:46:00,
2013-07-23 16:50:00,54.0,52.6,30.00,NNW,338,4.9,6.9,95,0.00,,---,0.00,VWS V14.01,2013-07-23 23:50:00,
2013-07-23 16:51:00,54.0,52.6,30.00,WNW,292,3.8,4.9,95,0.00,,---,0.00,VWS V14.01,2013-07-23 23:51:00,
2013-07-23 16:56:00,54.0,52.6,30.00,NNW,338,6.0,8.7,95,0.00,,---,0.00,VWS V14.01,2013-07-23 23:56:00,
2013-07-23 17:00:00,54.0,52.6,30.00,WNW,292,3.8,8.7,95,0.00,,---,0.00,VWS V14.01,2013-07-24 00:00:00,
2013-07-23 17:01:00,54.1,52.7,30.00,NNW,338,6.3,6.3,95,0.00,,---,0.00,VWS V14.01,2013-07-24 00:01:00,
2013-07-23 17:06:00,54.0,52.6,30.00,WNW,292,5.6,7.2,95,0.00,,---,0.00,VWS V14.01,2013-07-24 00:06:00,
2013-07-23 17:10:00,54.0,52.6,30.00,NNW,338,5.6,7.2,95,0.00,,---,0.00,VWS V14.01,2013-07-24 00:10:00,
2013-07-23 17:11:00,54.0,52.6,30.00,NNW,338,5.6,5.6,95,0.00,,---,0.00,VWS V14.01,2013-07-24 00:11:00,
2013-07-23 17:17:00,53.8,52.7,30.00,North,0,6.3,6.3,96,0.00,,---,0.00,VWS V14.01,2013-07-24 00:17:00,
2013-07-23 17:20:00,53.8,52.7,30.00,WNW,292,3.8,6.5,96,0.00,,---,0.00,VWS V14.01,2013-07-24 00:20:00,
2013-07-23 17:22:00,53.8,52.7,30.00,WNW,292,5.8,5.8,96,0.00,,---,0.00,VWS V14.01,2013-07-24 00:22:00,
2013-07-23 17:27:00,53.8,52.7,30.00,WNW,292,4.7,7.4,96,0.00,,---,0.00,VWS V14.01,2013-07-24 00:27:00,
2013-07-23 17:30:00,53.8,52.7,30.00,WNW,292,8.1,8.1,96,0.00,,---,0.00,VWS V14.01,2013-07-24 00:30:00,
2013-07-23 17:32:00,53.8,52.7,30.00,NW,315,5.8,8.1,96,0.00,,---,0.00,VWS V14.01,2013-07-24 00:32:00,
2013-07-23 17:37:00,53.8,52.7,30.00,NW,315,4.5,8.1,96,0.00,,---,0.00,VWS V14.01,2013-07-24 00:37:00,
2013-07-23 17:40:00,53.8,52.7,30.00,WNW,292,3.4,8.1,96,0.00,,---,0.00,VWS V14.01,2013-07-24 00:40:00,
2013-07-23 17:42:00,53.6,52.5,30.00,North,0,4.9,5.4,96,0.00,,---,0.00,VWS V14.01,2013-07-24 00:42:00,
2013-07-23 17:47:00,53.4,52.6,30.00,NNW,338,3.4,6.0,97,0.00,,---,0.00,VWS V14.01,2013-07-24 00:47:00,
2013-07-23 17:50:00,53.4,52.6,30.00,NW,315,7.2,7.6,97,0.00,,---,0.00,VWS V14.01,2013-07-24 00:50:00,
2013-07-23 17:52:00,53.4,52.6,30.00,NW,315,4.3,7.2,97,0.00,,---,0.00,VWS V14.01,2013-07-24 00:52:00,
2013-07-23 17:57:00,53.4,52.6,30.00,WNW,292,5.4,7.2,97,0.00,,---,0.00,VWS V14.01,2013-07-24 00:57:00,
2013-07-23 18:00:00,53.2,52.4,30.00,NNW,338,2.7,7.2,97,0.00,,---,0.00,VWS V14.01,2013-07-24 01:00:00,
2013-07-23 18:03:00,53.4,52.6,30.00,WNW,292,6.0,6.9,97,0.00,,---,0.00,VWS V14.01,2013-07-24 01:03:00,
2013-07-23 18:08:00,53.2,52.4,30.00,NNW,338,6.3,7.8,97,0.00,,---,0.00,VWS V14.01,2013-07-24 01:08:00,
2013-07-23 18:10:00,53.1,52.2,30.00,NNW,338,5.4,7.8,97,0.00,,---,0.00,VWS V14.01,2013-07-24 01:10:00,
2013-07-23 18:13:00,53.2,52.4,30.00,WNW,292,5.8,6.5,97,0.00,,---,0.00,VWS V14.01,2013-07-24 01:13:00,
2013-07-23 18:18:00,53.1,52.2,30.00,NNW,338,4.3,8.5,97,0.00,,---,0.00,VWS V14.01,2013-07-24 01:18:00,
2013-07-23 18:20:00,53.1,52.2,30.00,NW,315,5.4,8.5,97,0.00,,---,0.00,VWS V14.01,2013-07-24 01:20:00,
2013-07-23 18:24:00,53.1,52.2,30.00,NW,315,6.5,6.5,97,0.00,,---,0.00,VWS V14.01,2013-07-24 01:24:00,
2013-07-23 18:29:00,53.1,52.5,30.00,NNW,338,2.9,6.5,98,0.00,,---,0.00,VWS V14.01,2013-07-24 01:29:00,
2013-07-23 18:30:00,53.1,52.5,30.00,NNW,338,7.6,7.6,98,0.00,,---,0.00,VWS V14.01,2013-07-24 01:30:00,
2013-07-23 18:35:00,53.1,52.5,30.00,NNW,338,3.1,7.6,98,0.00,,---,0.00,VWS V14.01,2013-07-24 01:35:00,
2013-07-23 18:40:00,53.1,52.5,30.00,NNW,338,3.4,10.1,98,0.00,,---,0.00,VWS V14.01,2013-07-24 01:40:00,
2013-07-23 18:46:00,53.1,52.5,30.00,NNW,338,6.0,7.8,98,0.00,,---,0.00,VWS V14.01,2013-07-24 01:46:00,
2013-07-23 18:50:00,52.9,52.3,30.00,WNW,292,5.6,7.8,98,0.00,,---,0.00,VWS V14.01,2013-07-24 01:50:00,
2013-07-23 18:51:00,52.9,52.3,30.00,WNW,292,5.6,6.5,98,0.00,,---,0.00,VWS V14.01,2013-07-24 01:51:00,
2013-07-23 18:56:00,52.7,52.2,30.00,NE,45,8.7,8.7,98,0.00,,---,0.00,VWS V14.01,2013-07-24 01:56:00,
2013-07-23 19:00:00,52.7,52.2,30.00,WNW,292,6.3,8.7,98,0.00,,---,0.00,VWS V14.01,2013-07-24 02:00:00,
2013-07-23 19:02:00,52.7,52.2,30.00,WNW,292,2.2,6.3,98,0.00,,---,0.00,VWS V14.01,2013-07-24 02:02:00,
2013-07-23 19:07:00,52.7,52.2,30.00,WNW,292,5.6,7.8,98,0.00,,---,0.00,VWS V14.01,2013-07-24 02:07:00,
2013-07-23 19:10:00,52.7,52.2,30.00,NNE,22,6.5,7.8,98,0.00,,---,0.00,VWS V14.01,2013-07-24 02:10:00,
2013-07-23 19:13:00,52.7,52.2,30.00,WNW,292,4.3,6.5,98,0.00,,---,0.00,VWS V14.01,2013-07-24 02:13:00,
2013-07-23 19:19:00,52.7,52.2,30.00,NNW,338,7.4,7.4,98,0.00,,---,0.00,VWS V14.01,2013-07-24 02:19:00,
2013-07-23 19:20:00,52.7,52.2,30.00,NNW,338,7.4,7.4,98,0.00,,---,0.00,VWS V14.01,2013-07-24 02:20:00,
2013-07-23 19:25:00,52.7,52.2,30.00,NW,315,3.1,7.4,98,0.00,,---,0.00,VWS V14.01,2013-07-24 02:25:00,
2013-07-23 19:30:00,52.7,52.2,30.00,WNW,292,6.5,7.4,98,0.00,,---,0.00,VWS V14.01,2013-07-24 02:30:00,
2013-07-23 19:35:00,52.7,52.2,30.00,NNE,22,3.6,6.5,98,0.00,,---,0.00,VWS V14.01,2013-07-24 02:35:00,
2013-07-23 19:40:00,52.7,52.2,30.00,North,0,2.0,6.5,98,0.00,,---,0.00,VWS V14.01,2013-07-24 02:40:00,
2013-07-23 19:41:00,52.5,52.0,30.00,NNW,338,1.3,2.0,98,0.00,,---,0.00,VWS V14.01,2013-07-24 02:41:00,
2013-07-23 19:46:00,52.5,52.0,30.03,NNE,22,2.2,3.8,98,0.00,,---,0.00,VWS V14.01,2013-07-24 02:46:00,
2013-07-23 19:50:00,52.7,52.2,30.03,NW,315,2.9,6.3,98,0.00,,---,0.00,VWS V14.01,2013-07-24 02:50:00,
2013-07-23 19:51:00,52.7,52.2,30.03,WNW,292,2.5,2.9,98,0.00,,---,0.00,VWS V14.01,2013-07-24 02:51:00,
2013-07-23 19:56:00,52.5,52.0,30.03,NNW,338,1.3,4.7,98,0.00,,---,0.00,VWS V14.01,2013-07-24 02:56:00,
2013-07-23 20:00:00,52.5,52.0,30.03,NNW,338,3.1,5.8,98,0.00,,---,0.00,VWS V14.01,2013-07-24 03:00:00,
2013-07-23 20:02:00,52.5,52.0,30.03,NNW,338,3.1,4.9,98,0.00,,---,0.00,VWS V14.01,2013-07-24 03:02:00,
2013-07-23 20:07:00,52.5,52.0,30.03,NNW,338,3.6,5.6,98,0.00,,---,0.00,VWS V14.01,2013-07-24 03:07:00,
2013-07-23 20:10:00,52.5,52.0,30.03,NNW,338,2.5,5.6,98,0.00,,---,0.00,VWS V14.01,2013-07-24 03:10:00,
2013-07-23 20:12:00,52.5,52.0,30.03,WNW,292,3.1,3.1,98,0.00,,---,0.00,VWS V14.01,2013-07-24 03:12:00,
2013-07-23 20:18:00,52.3,51.8,30.03,North,0,2.9,4.3,98,0.00,,---,0.00,VWS V14.01,2013-07-24 03:18:00,
2013-07-23 20:20:00,52.3,51.8,30.03,WNW,292,4.3,4.3,98,0.00,,---,0.00,VWS V14.01,2013-07-24 03:20:00,
2013-07-23 20:24:00,52.2,51.6,30.03,WNW,292,2.7,6.0,98,0.00,,---,0.00,VWS V14.01,2013-07-24 03:24:00,
2013-07-23 20:30:00,52.2,51.6,30.03,WNW,292,2.7,6.0,98,0.00,,---,0.00,VWS V14.01,2013-07-24 03:30:00,
2013-07-23 20:36:00,52.2,51.6,30.03,WNW,292,1.3,5.8,98,0.00,,---,0.00,VWS V14.01,2013-07-24 03:36:00,
2013-07-23 20:40:00,52.0,51.4,30.03,WNW,292,3.8,5.8,98,0.00,,---,0.00,VWS V14.01,2013-07-24 03:40:00,
2013-07-23 20:41:00,52.0,51.4,30.03,NNW,338,3.4,3.8,98,0.00,,---,0.00,VWS V14.01,2013-07-24 03:41:00,
2013-07-23 20:46:00,51.8,51.3,30.03,NNW,338,2.9,4.7,98,0.00,,---,0.00,VWS V14.01,2013-07-24 03:46:00,
2013-07-23 20:50:00,52.0,51.4,30.03,WNW,292,2.5,4.7,98,0.00,,---,0.00,VWS V14.01,2013-07-24 03:50:00,
2013-07-23 20:51:00,52.0,51.4,30.03,NNW,338,2.9,2.9,98,0.00,,---,0.00,VWS V14.01,2013-07-24 03:51:00,
2013-07-23 20:56:00,51.8,51.3,30.03,WNW,292,4.0,4.9,98,0.00,,---,0.00,VWS V14.01,2013-07-24 03:56:00,
2013-07-23 21:00:00,51.8,51.3,30.03,WNW,292,5.4,5.4,98,0.00,,---,0.00,VWS V14.01,2013-07-24 04:00:00,
2013-07-23 21:01:00,51.8,51.3,30.03,NW,315,2.9,5.4,98,0.00,,---,0.00,VWS V14.01,2013-07-24 04:01:00,
2013-07-23 21:03:00,51.8,51.3,30.03,WNW,292,3.6,5.4,98,0.00,,---,0.00,VWS V14.01,2013-07-24 04:03:00,
2013-07-23 21:05:00,51.8,51.3,30.03,WNW,292,3.6,5.4,98,0.00,,---,0.00,VWS V14.01,2013-07-24 04:05:00,
2013-07-23 21:06:00,51.8,51.3,30.03,NNW,338,3.6,5.4,98,0.00,,---,0.00,VWS V14.01,2013-07-24 04:06:00,
2013-07-23 21:10:00,51.8,51.3,30.03,NNW,338,1.1,5.4,98,0.00,,---,0.00,VWS V14.01,2013-07-24 04:10:00,
2013-07-23 21:11:00,51.8,51.3,30.03,WNW,292,3.6,3.6,98,0.00,,---,0.00,VWS V14.01,2013-07-24 04:11:00,
2013-07-23 21:16:00,51.8,51.3,30.03,WNW,292,2.5,4.3,98,0.00,,---,0.00,VWS V14.01,2013-07-24 04:16:00,
2013-07-23 21:20:00,51.6,51.1,30.03,NW,315,1.6,6.5,98,0.00,,---,0.00,VWS V14.01,2013-07-24 04:20:00,
2013-07-23 21:21:00,51.8,51.3,30.03,NNW,338,5.6,5.6,98,0.00,,---,0.00,VWS V14.01,2013-07-24 04:21:00,
2013-07-23 21:27:00,51.6,51.1,30.03,NNW,338,3.6,6.0,98,0.00,,---,0.00,VWS V14.01,2013-07-24 04:27:00,
2013-07-23 21:30:00,51.6,51.1,30.03,WNW,292,2.9,6.0,98,0.00,,---,0.00,VWS V14.01,2013-07-24 04:30:00,
2013-07-23 21:32:00,51.6,51.1,30.03,WNW,292,2.7,2.9,98,0.00,,---,0.00,VWS V14.01,2013-07-24 04:32:00,
2013-07-23 21:37:00,51.6,51.1,30.03,NNW,338,5.4,5.4,98,0.00,,---,0.00,VWS V14.01,2013-07-24 04:37:00,
2013-07-23 21:40:00,51.6,51.1,30.03,NNW,338,2.5,5.4,98,0.00,,---,0.00,VWS V14.01,2013-07-24 04:40:00,
2013-07-23 21:42:00,51.6,51.1,30.03,NNW,338,2.5,3.4,98,0.00,,---,0.00,VWS V14.01,2013-07-24 04:42:00,
2013-07-23 21:47:00,51.6,51.1,30.03,NNW,338,2.0,3.6,98,0.00,,---,0.00,VWS V14.01,2013-07-24 04:47:00,
2013-07-23 21:50:00,51.6,51.1,30.03,NW,315,3.6,3.6,98,0.00,,---,0.00,VWS V14.01,2013-07-24 04:50:00,
2013-07-23 21:52:00,51.6,51.1,30.03,NW,315,3.6,3.6,98,0.00,,---,0.00,VWS V14.01,2013-07-24 04:52:00,
2013-07-23 21:57:00,51.6,51.1,30.03,WNW,292,3.1,3.8,98,0.00,,---,0.00,VWS V14.01,2013-07-24 04:57:00,
2013-07-23 22:00:00,51.4,50.9,30.03,NNW,338,3.4,3.8,98,0.00,,---,0.00,VWS V14.01,2013-07-24 05:00:00,
2013-07-23 22:02:00,51.4,50.9,30.03,NNW,338,1.1,3.4,98,0.00,,---,0.00,VWS V14.01,2013-07-24 05:02:00,
2013-07-23 22:07:00,51.4,50.9,30.03,NNW,338,2.5,3.8,98,0.00,,---,0.00,VWS V14.01,2013-07-24 05:07:00,
2013-07-23 22:10:00,51.4,50.9,30.03,NNW,338,2.9,4.0,98,0.00,,---,0.00,VWS V14.01,2013-07-24 05:10:00,
2013-07-23 22:12:00,51.4,50.9,30.03,North,0,2.0,2.9,98,0.00,,---,0.00,VWS V14.01,2013-07-24 05:12:00,
2013-07-23 22:17:00,51.4,50.9,30.03,WNW,292,2.5,3.8,98,0.00,,---,0.00,VWS V14.01,2013-07-24 05:17:00,
2013-07-23 22:20:00,51.4,50.9,30.03,NNW,338,2.7,3.8,98,0.00,,---,0.00,VWS V14.01,2013-07-24 05:20:00,
2013-07-23 22:22:00,51.4,50.9,30.03,NNW,338,2.5,2.7,98,0.00,,---,0.00,VWS V14.01,2013-07-24 05:22:00,
2013-07-23 22:27:00,51.4,50.9,30.03,WNW,292,2.7,3.6,98,0.00,,---,0.00,VWS V14.01,2013-07-24 05:27:00,
2013-07-23 22:30:00,51.4,50.9,30.03,NW,315,2.9,3.6,98,0.00,,---,0.00,VWS V14.01,2013-07-24 05:30:00,
2013-07-23 22:32:00,51.4,50.9,30.03,WNW,292,3.8,3.8,98,0.00,,---,0.00,VWS V14.01,2013-07-24 05:32:00,
2013-07-23 22:37:00,51.3,50.7,30.03,WNW,292,2.9,5.6,98,0.00,,---,0.00,VWS V14.01,2013-07-24 05:37:00,
2013-07-23 22:40:00,51.3,50.7,30.03,NW,315,2.2,5.6,98,0.00,,---,0.00,VWS V14.01,2013-07-24 05:40:00,
2013-07-23 22:42:00,51.3,50.7,30.03,NW,315,2.5,2.5,98,0.00,,---,0.00,VWS V14.01,2013-07-24 05:42:00,
2013-07-23 22:47:00,51.3,50.7,30.03,NW,315,1.3,3.8,98,0.00,,---,0.00,VWS V14.01,2013-07-24 05:47:00,
2013-07-23 22:50:00,51.3,50.7,30.03,WNW,292,2.2,3.8,98,0.00,,---,0.00,VWS V14.01,2013-07-24 05:50:00,
2013-07-23 22:52:00,51.3,50.7,30.03,NNW,338,1.6,2.7,98,0.00,,---,0.00,VWS V14.01,2013-07-24 05:52:00,
2013-07-23 22:57:00,51.3,50.7,30.03,WNW,292,3.6,3.6,98,0.00,,---,0.00,VWS V14.01,2013-07-24 05:57:00,
2013-07-23 23:00:00,51.3,50.7,30.03,WNW,292,3.1,3.6,98,0.00,,---,0.00,VWS V14.01,2013-07-24 06:00:00,
2013-07-23 23:02:00,51.3,50.7,30.03,SE,135,1.1,3.1,98,0.00,,---,0.00,VWS V14.01,2013-07-24 06:02:00,
2013-07-23 23:07:00,51.3,50.7,30.03,ESE,112,3.1,4.0,98,0.00,,---,0.00,VWS V14.01,2013-07-24 06:07:00,
2013-07-23 23:10:00,51.3,50.7,30.03,NNW,338,2.9,5.4,98,0.00,,---,0.00,VWS V14.01,2013-07-24 06:10:00,
2013-07-23 23:12:00,51.3,50.7,30.03,WNW,292,2.9,3.1,98,0.00,,---,0.00,VWS V14.01,2013-07-24 06:12:00,
2013-07-23 23:18:00,51.3,50.7,30.03,NNW,338,2.5,3.1,98,0.00,,---,0.00,VWS V14.01,2013-07-24 06:18:00,
2013-07-23 23:20:00,51.3,50.7,30.03,NNW,338,1.3,3.1,98,0.00,,---,0.00,VWS V14.01,2013-07-24 06:20:00,
2013-07-23 23:23:00,51.3,50.7,30.03,WNW,292,0.9,3.4,98,0.00,,---,0.00,VWS V14.01,2013-07-24 06:23:00,
2013-07-23 23:28:00,51.3,50.7,30.03,NNW,338,5.4,5.4,98,0.00,,---,0.00,VWS V14.01,2013-07-24 06:28:00,
2013-07-23 23:30:00,51.1,50.5,30.03,NNW,338,3.1,5.4,98,0.00,,---,0.00,VWS V14.01,2013-07-24 06:30:00,
2013-07-23 23:33:00,51.1,50.5,30.03,North,0,1.6,3.6,98,0.00,,---,0.00,VWS V14.01,2013-07-24 06:33:00,
2013-07-23 23:38:00,51.3,50.7,30.03,WNW,292,1.3,3.6,98,0.00,,---,0.00,VWS V14.01,2013-07-24 06:38:00,
2013-07-23 23:40:00,51.3,50.7,30.03,WNW,292,2.5,3.6,98,0.00,,---,0.00,VWS V14.01,2013-07-24 06:40:00,
2013-07-23 23:43:00,51.1,50.5,30.03,WNW,292,1.6,3.1,98,0.00,,---,0.00,VWS V14.01,2013-07-24 06:43:00,
2013-07-23 23:48:00,51.3,50.7,30.03,WNW,292,2.5,3.1,98,0.00,,---,0.00,VWS V14.01,2013-07-24 06:48:00,
2013-07-23 23:50:00,51.3,50.7,30.03,NW,315,3.1,3.1,98,0.00,,---,0.00,VWS V14.01,2013-07-24 06:50:00,
2013-07-23 23:54:00,51.3,50.7,30.03,WNW,292,3.6,3.6,98,0.00,,---,0.00,VWS V14.01,2013-07-24 06:54:00,
2013-07-23 23:59:00,51.3,50.7,30.03,WNW,292,2.7,3.6,98,0.00,,---,0.00,VWS V14.01,2013-07-24 06:59:00,